Time,TemperatureF,DewpointF,PressureIn,WindDirection,WindDirectionDegrees,WindSpeedMPH,WindSpeedGustMPH,Humidity,HourlyPrecipIn,Conditions,Clouds,dailyrainin,SolarRadiationWatts/m^2,SoftwareType,DateUTC
2013-02-11 00:07:00,28.4,19.0,30.00,NNW,337,0.0,-999.0,68,-99.99,,,0.00,0,weatherlink.com 1.10,2013-02-10 23:07:00,
2013-02-11 00:22:00,28.3,19.0,29.99,North,11,0.0,-999.0,67,-99.99,,,0.00,0,weatherlink.com 1.10,2013-02-10 23:22:00,
2013-02-11 00:37:00,28.4,19.0,29.99,NE,39,0.0,-999.0,68,-99.99,,,0.00,0,weatherlink.com 1.10,2013-02-10 23:37:00,
2013-02-11 00:52:00,28.4,19.0,29.98,NNW,341,0.0,-999.0,68,-99.99,,,0.00,0,weatherlink.com 1.10,2013-02-10 23:52:00,
2013-02-11 01:07:00,28.4,19.0,29.98,WNW,293,2.0,-999.0,68,-99.99,,,0.00,0,weatherlink.com 1.10,2013-02-11 00:07:00,
2013-02-11 01:22:00,28.3,19.0,29.98,NNE,29,1.0,-999.0,69,-99.99,,,0.00,0,weatherlink.com 1.10,2013-02-11 00:22:00,
2013-02-11 01:37:00,28.2,20.0,29.98,NNE,23,1.0,-999.0,70,-99.99,,,0.00,0,weatherlink.com 1.10,2013-02-11 00:37:00,
2013-02-11 01:52:00,27.9,20.0,29.98,NW,315,1.0,-999.0,71,-99.99,,,0.00,0,weatherlink.com 1.10,2013-02-11 00:52:00,
2013-02-11 02:07:00,27.7,19.0,29.97,NW,315,0.0,-999.0,71,-99.99,,,0.00,0,weatherlink.com 1.10,2013-02-11 01:07:00,
2013-02-11 02:22:00,27.4,19.0,29.97,NW,315,0.0,-999.0,72,-99.99,,,0.00,0,weatherlink.com 1.10,2013-02-11 01:22:00,
2013-02-11 02:37:00,27.0,19.0,29.97,North,357,0.0,-999.0,73,-99.99,,,0.00,0,weatherlink.com 1.10,2013-02-11 01:37:00,
2013-02-11 02:52:00,26.7,19.0,29.97,North,354,0.0,-999.0,74,-99.99,,,0.00,0,weatherlink.com 1.10,2013-02-11 01:52:00,
2013-02-11 03:07:00,26.4,20.0,29.96,North,354,0.0,-999.0,75,-99.99,,,0.00,0,weatherlink.com 1.10,2013-02-11 02:07:00,
2013-02-11 03:22:00,26.2,20.0,29.95,North,354,0.0,-999.0,76,-99.99,,,0.00,0,weatherlink.com 1.10,2013-02-11 02:22:00,
2013-02-11 03:37:00,25.9,19.0,29.95,North,354,0.0,-999.0,76,-99.99,,,0.00,0,weatherlink.com 1.10,2013-02-11 02:37:00,
2013-02-11 03:52:00,25.7,19.0,29.94,North,354,0.0,-999.0,77,-99.99,,,0.00,0,weatherlink.com 1.10,2013-02-11 02:52:00,
2013-02-11 04:07:00,25.4,19.0,29.94,North,354,0.0,-999.0,77,-99.99,,,0.00,0,weatherlink.com 1.10,2013-02-11 03:07:00,
2013-02-11 04:22:00,25.2,19.0,29.94,North,354,0.0,-999.0,78,-99.99,,,0.00,0,weatherlink.com 1.10,2013-02-11 03:22:00,
2013-02-11 04:37:00,25.1,19.0,29.93,North,354,0.0,-999.0,78,-99.99,,,0.00,0,weatherlink.com 1.10,2013-02-11 03:37:00,
2013-02-11 04:52:00,24.8,19.0,29.93,North,354,0.0,-999.0,78,-99.99,,,0.00,0,weatherlink.com 1.10,2013-02-11 03:52:00,
2013-02-11 05:07:00,24.6,19.0,29.92,North,354,0.0,-999.0,79,-99.99,,,0.00,0,weatherlink.com 1.10,2013-02-11 04:07:00,
2013-02-11 05:22:00,24.4,19.0,29.92,North,354,0.0,-999.0,79,-99.99,,,0.00,0,weatherlink.com 1.10,2013-02-11 04:22:00,
2013-02-11 05:37:00,24.3,19.0,29.92,North,354,0.0,-999.0,80,-99.99,,,0.00,0,weatherlink.com 1.10,2013-02-11 04:37:00,
2013-02-11 05:52:00,24.3,19.0,29.91,North,354,0.0,-999.0,80,-99.99,,,0.00,0,weatherlink.com 1.10,2013-02-11 04:52:00,
2013-02-11 06:07:00,24.2,19.0,29.92,North,354,0.0,-999.0,81,-99.99,,,0.00,0,weatherlink.com 1.10,2013-02-11 05:07:00,
2013-02-11 06:22:00,24.2,19.0,29.91,North,354,0.0,-999.0,81,-99.99,,,0.00,0,weatherlink.com 1.10,2013-02-11 05:22:00,
2013-02-11 06:37:00,24.1,19.0,29.91,North,354,0.0,-999.0,81,-99.99,,,0.00,0,weatherlink.com 1.10,2013-02-11 05:37:00,
2013-02-11 06:52:00,24.0,19.0,29.91,North,354,0.0,-999.0,82,-99.99,,,0.00,0,weatherlink.com 1.10,2013-02-11 05:52:00,
2013-02-11 07:07:00,23.9,19.0,29.91,North,354,0.0,-999.0,82,-99.99,,,0.00,0,weatherlink.com 1.10,2013-02-11 06:07:00,
2013-02-11 07:22:00,23.9,20.0,29.91,North,356,0.0,-999.0,83,-99.99,,,0.00,0,weatherlink.com 1.10,2013-02-11 06:22:00,
2013-02-11 07:37:00,24.0,20.0,29.91,North,351,0.0,-999.0,83,-99.99,,,0.00,7,weatherlink.com 1.10,2013-02-11 06:37:00,
2013-02-11 07:52:00,24.1,20.0,29.91,North,351,0.0,-999.0,84,-99.99,,,0.00,11,weatherlink.com 1.10,2013-02-11 06:52:00,
2013-02-11 08:07:00,24.3,20.0,29.91,North,357,0.0,-999.0,84,-99.99,,,0.00,16,weatherlink.com 1.10,2013-02-11 07:07:00,
2013-02-11 08:22:00,24.7,21.0,29.91,North,357,0.0,-999.0,85,-99.99,,,0.00,25,weatherlink.com 1.10,2013-02-11 07:22:00,
2013-02-11 08:37:00,24.9,21.0,29.90,North,357,0.0,-999.0,85,-99.99,,,0.00,33,weatherlink.com 1.10,2013-02-11 07:37:00,
2013-02-11 08:52:00,25.2,21.0,29.90,North,357,0.0,-999.0,85,-99.99,,,0.00,40,weatherlink.com 1.10,2013-02-11 07:52:00,
2013-02-11 09:07:00,25.6,22.0,29.90,North,356,0.0,-999.0,85,-99.99,,,0.00,35,weatherlink.com 1.10,2013-02-11 08:07:00,
2013-02-11 09:22:00,26.0,22.0,29.89,NNE,20,1.0,-999.0,85,-99.99,,,0.00,53,weatherlink.com 1.10,2013-02-11 08:22:00,
2013-02-11 09:37:00,26.3,22.0,29.89,NW,309,0.0,-999.0,85,-99.99,,,0.00,60,weatherlink.com 1.10,2013-02-11 08:37:00,
2013-02-11 09:52:00,26.7,23.0,29.89,NW,319,0.0,-999.0,85,-99.99,,,0.00,62,weatherlink.com 1.10,2013-02-11 08:52:00,
2013-02-11 10:07:00,27.0,23.0,29.89,NNE,19,0.0,-999.0,84,-99.99,,,0.00,49,weatherlink.com 1.10,2013-02-11 09:07:00,
2013-02-11 10:22:00,27.1,23.0,29.89,NNE,13,0.0,-999.0,84,-99.99,,,0.00,42,weatherlink.com 1.10,2013-02-11 09:22:00,
2013-02-11 10:37:00,27.3,23.0,29.89,NE,38,0.0,-999.0,83,-99.99,,,0.00,58,weatherlink.com 1.10,2013-02-11 09:37:00,
2013-02-11 10:52:00,27.4,23.0,29.89,NNE,23,0.0,-999.0,83,-99.99,,,0.00,46,weatherlink.com 1.10,2013-02-11 09:52:00,
2013-02-11 11:07:00,27.6,23.0,29.89,NNE,29,0.0,-999.0,83,-99.99,,,0.00,39,weatherlink.com 1.10,2013-02-11 10:07:00,
2013-02-11 11:22:00,27.8,23.0,29.89,NNW,329,1.0,-999.0,82,-99.99,,,0.00,40,weatherlink.com 1.10,2013-02-11 10:22:00,
2013-02-11 11:37:00,27.9,23.0,29.89,NNW,348,1.0,-999.0,82,-99.99,,,0.00,49,weatherlink.com 1.10,2013-02-11 10:37:00,
2013-02-11 11:52:00,28.0,23.0,29.89,WNW,297,0.0,-999.0,81,-99.99,,,0.00,39,weatherlink.com 1.10,2013-02-11 10:52:00,
2013-02-11 12:07:00,28.2,23.0,29.89,NW,306,1.0,-999.0,81,-99.99,,,0.00,47,weatherlink.com 1.10,2013-02-11 11:07:00,
2013-02-11 12:22:00,28.3,23.0,29.88,West,266,2.0,-999.0,79,-99.99,,,0.00,69,weatherlink.com 1.10,2013-02-11 11:22:00,
2013-02-11 12:37:00,28.5,22.0,29.88,West,281,0.0,-999.0,78,-99.99,,,0.00,46,weatherlink.com 1.10,2013-02-11 11:37:00,
2013-02-11 12:52:00,28.8,23.0,29.88,North,358,0.0,-999.0,78,-99.99,,,0.00,47,weatherlink.com 1.10,2013-02-11 11:52:00,
2013-02-11 13:07:00,28.9,23.0,29.88,WNW,290,0.0,-999.0,78,-99.99,,,0.00,49,weatherlink.com 1.10,2013-02-11 12:07:00,
2013-02-11 13:22:00,28.9,23.0,29.88,NNW,345,0.0,-999.0,79,-99.99,,,0.00,46,weatherlink.com 1.10,2013-02-11 12:22:00,
2013-02-11 13:37:00,28.9,23.0,29.88,NE,37,0.0,-999.0,79,-99.99,,,0.00,35,weatherlink.com 1.10,2013-02-11 12:37:00,
2013-02-11 13:52:00,28.9,23.0,29.87,NNW,329,2.0,-999.0,79,-99.99,,,0.00,33,weatherlink.com 1.10,2013-02-11 12:52:00,
2013-02-11 14:07:00,28.9,23.0,29.87,WSW,246,4.0,-999.0,78,-99.99,,,0.00,40,weatherlink.com 1.10,2013-02-11 13:07:00,
2013-02-11 14:23:00,28.9,22.0,29.87,NNW,329,1.0,-999.0,76,-99.99,,,0.00,37,weatherlink.com 1.10,2013-02-11 13:23:00,
2013-02-11 14:37:00,28.9,22.0,29.88,NNE,22,0.0,-999.0,76,-99.99,,,0.00,30,weatherlink.com 1.10,2013-02-11 13:37:00,
2013-02-11 14:52:00,28.9,22.0,29.88,WNW,302,1.0,-999.0,75,-99.99,,,0.00,40,weatherlink.com 1.10,2013-02-11 13:52:00,
2013-02-11 15:07:00,28.7,21.0,29.88,NW,308,0.0,-999.0,74,-99.99,,,0.00,37,weatherlink.com 1.10,2013-02-11 14:07:00,
2013-02-11 15:22:00,28.5,21.0,29.88,NNE,29,2.0,-999.0,74,-99.99,,,0.00,30,weatherlink.com 1.10,2013-02-11 14:22:00,
2013-02-11 15:37:00,28.5,21.0,29.88,North,9,2.0,-999.0,73,-99.99,,,0.00,23,weatherlink.com 1.10,2013-02-11 14:37:00,
2013-02-11 15:52:00,28.5,21.0,29.87,NNE,25,1.0,-999.0,74,-99.99,,,0.00,21,weatherlink.com 1.10,2013-02-11 14:52:00,
2013-02-11 16:07:00,28.5,21.0,29.87,ENE,62,0.0,-999.0,74,-99.99,,,0.00,14,weatherlink.com 1.10,2013-02-11 15:07:00,
2013-02-11 16:22:00,28.5,21.0,29.87,NE,44,1.0,-999.0,74,-99.99,,,0.00,11,weatherlink.com 1.10,2013-02-11 15:22:00,
2013-02-11 16:37:00,28.6,21.0,29.87,NNW,329,3.0,-999.0,74,-99.99,,,0.00,0,weatherlink.com 1.10,2013-02-11 15:37:00,
2013-02-11 16:52:00,28.7,21.0,29.87,NNW,348,2.0,-999.0,73,-99.99,,,0.00,0,weatherlink.com 1.10,2013-02-11 15:52:00,
2013-02-11 17:09:00,28.7,21.0,29.88,NNE,30,2.0,-999.0,73,-99.99,,,0.00,0,weatherlink.com 1.10,2013-02-11 16:09:00,
2013-02-11 17:22:00,28.7,21.0,29.88,NNE,12,0.0,-999.0,72,-99.99,,,0.00,0,weatherlink.com 1.10,2013-02-11 16:22:00,
2013-02-11 17:37:00,28.7,21.0,29.88,West,281,6.0,-999.0,72,-99.99,,,0.00,0,weatherlink.com 1.10,2013-02-11 16:37:00,
2013-02-11 17:52:00,28.7,21.0,29.87,North,4,0.0,-999.0,72,-99.99,,,0.00,0,weatherlink.com 1.10,2013-02-11 16:52:00,
2013-02-11 18:07:00,28.8,21.0,29.87,NNW,343,1.0,-999.0,73,-99.99,,,0.00,0,weatherlink.com 1.10,2013-02-11 17:07:00,
2013-02-11 18:22:00,28.8,22.0,29.88,North,8,1.0,-999.0,74,-99.99,,,0.00,0,weatherlink.com 1.10,2013-02-11 17:22:00,
2013-02-11 18:37:00,28.8,22.0,29.87,NNW,339,1.0,-999.0,74,-99.99,,,0.00,0,weatherlink.com 1.10,2013-02-11 17:37:00,
2013-02-11 18:52:00,28.8,22.0,29.87,NNE,14,0.0,-999.0,74,-99.99,,,0.00,0,weatherlink.com 1.10,2013-02-11 17:52:00,
2013-02-11 19:07:00,28.8,22.0,29.87,NW,319,0.0,-999.0,75,-99.99,,,0.00,0,weatherlink.com 1.10,2013-02-11 18:07:00,
2013-02-11 19:22:00,28.8,22.0,29.87,WNW,293,0.0,-999.0,75,-99.99,,,0.00,0,weatherlink.com 1.10,2013-02-11 18:22:00,
2013-02-11 19:37:00,28.8,22.0,29.87,West,279,0.0,-999.0,75,-99.99,,,0.00,0,weatherlink.com 1.10,2013-02-11 18:37:00,
2013-02-11 19:52:00,28.8,22.0,29.87,North,2,2.0,-999.0,74,-99.99,,,0.00,0,weatherlink.com 1.10,2013-02-11 18:52:00,
2013-02-11 20:09:00,28.8,22.0,29.87,NNW,339,0.0,-999.0,74,-99.99,,,0.00,0,weatherlink.com 1.10,2013-02-11 19:09:00,
2013-02-11 20:22:00,28.8,22.0,29.87,NW,309,0.0,-999.0,75,-99.99,,,0.00,0,weatherlink.com 1.10,2013-02-11 19:22:00,
2013-02-11 20:38:00,28.8,22.0,29.87,North,355,0.0,-999.0,74,-99.99,,,0.00,0,weatherlink.com 1.10,2013-02-11 19:38:00,
2013-02-11 20:52:00,28.8,22.0,29.87,NNE,13,0.0,-999.0,74,-99.99,,,0.00,0,weatherlink.com 1.10,2013-02-11 19:52:00,
2013-02-11 21:07:00,28.8,22.0,29.87,WNW,302,0.0,-999.0,74,-99.99,,,0.00,0,weatherlink.com 1.10,2013-02-11 20:07:00,
2013-02-11 21:22:00,28.7,22.0,29.87,WNW,300,0.0,-999.0,75,-99.99,,,0.00,0,weatherlink.com 1.10,2013-02-11 20:22:00,
2013-02-11 21:37:00,28.8,22.0,29.88,NW,315,0.0,-999.0,75,-99.99,,,0.00,0,weatherlink.com 1.10,2013-02-11 20:37:00,
2013-02-11 21:52:00,28.8,22.0,29.88,NE,42,0.0,-999.0,76,-99.99,,,0.00,0,weatherlink.com 1.10,2013-02-11 20:52:00,
2013-02-11 22:07:00,28.8,22.0,29.88,NNE,20,0.0,-999.0,76,-99.99,,,0.00,0,weatherlink.com 1.10,2013-02-11 21:07:00,
2013-02-11 22:22:00,28.7,22.0,29.88,NNE,33,0.0,-999.0,77,-99.99,,,0.00,0,weatherlink.com 1.10,2013-02-11 21:22:00,
2013-02-11 22:37:00,28.7,22.0,29.88,NNE,23,2.0,-999.0,77,-99.99,,,0.00,0,weatherlink.com 1.10,2013-02-11 21:37:00,
2013-02-11 22:52:00,28.7,23.0,29.88,NW,312,0.0,-999.0,78,-99.99,,,0.00,0,weatherlink.com 1.10,2013-02-11 21:52:00,
2013-02-11 23:07:00,28.6,23.0,29.87,North,10,1.0,-999.0,78,-99.99,,,0.00,0,weatherlink.com 1.10,2013-02-11 22:07:00,
2013-02-11 23:22:00,28.6,23.0,29.88,North,4,0.0,-999.0,79,-99.99,,,0.00,0,weatherlink.com 1.10,2013-02-11 22:22:00,
2013-02-11 23:37:00,28.6,23.0,29.87,North,356,1.0,-999.0,79,-99.99,,,0.00,0,weatherlink.com 1.10,2013-02-11 22:37:00,
2013-02-11 23:52:00,28.6,23.0,29.87,NE,36,1.0,-999.0,79,-99.99,,,0.00,0,weatherlink.com 1.10,2013-02-11 22:52:00,